Time,TemperatureF,DewpointF,PressureIn,WindDirection,WindDirectionDegrees,WindSpeedMPH,WindSpeedGustMPH,Humidity,HourlyPrecipIn,Conditions,Clouds,dailyrainin,SoftwareType,DateUTC
2013-05-20 00:03:00,59.2,26.1,28.52,NNW,339,1.0,2.0,28,0.00,,,0.00,Wunderground v.1.15,2013-05-20 07:03:00,
2013-05-20 00:08:00,59.0,25.9,28.52,NNW,338,0.0,2.0,28,0.00,,,0.00,Wunderground v.1.15,2013-05-20 07:08:00,
2013-05-20 00:14:00,58.4,26.2,28.52,NNW,340,1.0,4.0,29,0.00,,,0.00,Wunderground v.1.15,2013-05-20 07:14:00,
2013-05-20 00:20:00,58.1,26.0,28.52,NNW,329,2.0,2.0,29,0.00,,,0.00,Wunderground v.1.15,2013-05-20 07:20:00,
2013-05-20 00:25:00,58.0,25.9,28.52,NNW,329,1.0,3.0,29,0.00,,,0.00,Wunderground v.1.15,2013-05-20 07:25:00,
2013-05-20 00:30:00,58.0,25.9,28.52,NNW,329,0.0,0.0,29,0.00,,,0.00,Wunderground v.1.15,2013-05-20 07:30:00,
2013-05-20 00:36:00,58.2,26.1,28.52,NNW,329,0.0,2.0,29,0.00,,,0.00,Wunderground v.1.15,2013-05-20 07:36:00,
2013-05-20 00:41:00,58.4,26.2,28.52,NNW,329,0.0,0.0,29,0.00,,,0.00,Wunderground v.1.15,2013-05-20 07:41:00,
2013-05-20 00:47:00,58.4,26.2,28.99,NNW,329,0.0,0.0,29,0.00,,,0.00,Wunderground v.1.15,2013-05-20 07:47:00,
2013-05-20 00:53:00,58.8,26.6,28.99,NNW,329,0.0,3.0,29,0.00,,,0.00,Wunderground v.1.15,2013-05-20 07:53:00,
2013-05-20 00:58:00,59.4,27.1,29.36,NNW,330,0.0,3.0,29,0.00,,,0.00,Wunderground v.1.15,2013-05-20 07:58:00,
2013-05-20 01:04:00,59.8,27.4,29.36,NNW,330,0.0,2.0,29,0.00,,,0.00,Wunderground v.1.15,2013-05-20 08:04:00,
2013-05-20 01:09:00,60.3,27.9,29.20,NNW,329,1.0,4.0,29,0.00,,,0.00,Wunderground v.1.15,2013-05-20 08:09:00,
2013-05-20 01:15:00,60.8,27.5,29.24,NW,319,2.0,7.0,28,0.00,,,0.00,Wunderground v.1.15,2013-05-20 08:15:00,
2013-05-20 01:20:00,61.9,28.4,29.24,NNW,336,3.0,3.0,28,0.00,,,0.00,Wunderground v.1.15,2013-05-20 08:20:00,
2013-05-20 01:25:00,62.7,28.2,29.00,NNW,342,4.0,7.0,27,0.00,,,0.00,Wunderground v.1.15,2013-05-20 08:25:00,
2013-05-20 01:31:00,63.2,28.6,29.00,NW,323,5.0,5.0,27,0.00,,,0.00,Wunderground v.1.15,2013-05-20 08:31:00,
2013-05-20 01:36:00,63.3,28.7,29.52,NW,323,5.0,8.0,27,0.00,,,0.00,Wunderground v.1.15,2013-05-20 08:36:00,
2013-05-20 01:41:00,63.1,29.4,29.54,NNW,335,5.0,6.0,28,0.00,,,0.00,Wunderground v.1.15,2013-05-20 08:41:00,
2013-05-20 01:47:00,63.0,29.4,29.47,North,355,6.0,11.0,28,0.00,,,0.00,Wunderground v.1.15,2013-05-20 08:47:00,
2013-05-20 01:53:00,63.0,29.4,29.47,NW,322,6.0,7.0,28,0.00,,,0.00,Wunderground v.1.15,2013-05-20 08:53:00,
2013-05-20 01:58:00,62.9,29.3,29.05,NNW,334,6.0,7.0,28,0.00,,,0.00,Wunderground v.1.15,2013-05-20 08:58:00,
2013-05-20 02:04:00,62.6,29.9,29.63,NW,315,5.0,6.0,29,0.00,,,0.00,Wunderground v.1.15,2013-05-20 09:04:00,
2013-05-20 02:09:00,62.3,29.6,29.35,NW,323,5.0,8.0,29,0.00,,,0.00,Wunderground v.1.15,2013-05-20 09:09:00,
2013-05-20 02:15:00,62.0,29.3,29.35,NW,313,4.0,6.0,29,0.00,,,0.00,Wunderground v.1.15,2013-05-20 09:15:00,
2013-05-20 02:20:00,61.4,28.8,28.74,NW,313,3.0,3.0,29,0.00,,,0.00,Wunderground v.1.15,2013-05-20 09:20:00,
2013-05-20 02:26:00,60.8,29.1,28.52,NNW,327,2.0,3.0,30,0.00,,,0.00,Wunderground v.1.15,2013-05-20 09:26:00,
2013-05-20 02:31:00,60.2,29.4,29.50,NNW,327,0.0,1.0,31,0.00,,,0.00,Wunderground v.1.15,2013-05-20 09:31:00,
2013-05-20 02:37:00,59.8,29.1,29.64,NNW,327,0.0,2.0,31,0.00,,,0.00,Wunderground v.1.15,2013-05-20 09:37:00,
2013-05-20 02:42:00,59.7,29.0,29.64,NNW,327,0.0,1.0,31,0.00,,,0.00,Wunderground v.1.15,2013-05-20 09:42:00,
2013-05-20 02:47:00,59.2,28.5,29.64,NW,326,0.0,1.0,31,0.00,,,0.00,Wunderground v.1.15,2013-05-20 09:47:00,
2013-05-20 02:53:00,58.6,28.8,29.64,NNW,327,0.0,0.0,32,0.00,,,0.00,Wunderground v.1.15,2013-05-20 09:53:00,
2013-05-20 02:58:00,57.9,28.9,29.64,NNW,327,0.0,0.0,33,0.00,,,0.00,Wunderground v.1.15,2013-05-20 09:58:00,
2013-05-20 03:04:00,57.5,28.6,29.64,NW,326,0.0,0.0,33,0.00,,,0.00,Wunderground v.1.15,2013-05-20 10:04:00,
2013-05-20 03:09:00,57.1,29.0,29.64,NNW,327,0.0,0.0,34,0.00,,,0.00,Wunderground v.1.15,2013-05-20 10:09:00,
2013-05-20 03:15:00,56.5,28.4,29.64,WNW,295,0.0,4.0,34,0.00,,,0.00,Wunderground v.1.15,2013-05-20 10:15:00,
2013-05-20 03:20:00,56.0,28.7,29.63,WNW,294,1.0,1.0,35,0.00,,,0.00,Wunderground v.1.15,2013-05-20 10:20:00,
2013-05-20 03:26:00,55.7,28.4,29.56,WNW,294,0.0,1.0,35,0.00,,,0.00,Wunderground v.1.15,2013-05-20 10:26:00,
2013-05-20 03:31:00,55.4,28.2,29.43,WNW,294,0.0,0.0,35,0.00,,,0.00,Wunderground v.1.15,2013-05-20 10:31:00,
2013-05-20 03:37:00,55.1,28.6,29.43,WNW,294,0.0,0.0,36,0.00,,,0.00,Wunderground v.1.15,2013-05-20 10:37:00,
2013-05-20 03:42:00,54.8,28.3,29.61,WNW,294,0.0,0.0,36,0.00,,,0.00,Wunderground v.1.15,2013-05-20 10:42:00,
2013-05-20 03:48:00,54.5,28.7,29.64,WNW,294,0.0,0.0,37,0.00,,,0.00,Wunderground v.1.15,2013-05-20 10:48:00,
2013-05-20 03:53:00,54.5,28.7,29.61,WNW,294,0.0,2.0,37,0.00,,,0.00,Wunderground v.1.15,2013-05-20 10:53:00,
2013-05-20 03:58:00,54.5,28.7,29.26,WNW,294,0.0,2.0,37,0.00,,,0.00,Wunderground v.1.15,2013-05-20 10:58:00,
2013-05-20 04:04:00,54.6,28.8,29.26,WNW,294,1.0,3.0,37,0.00,,,0.00,Wunderground v.1.15,2013-05-20 11:04:00,
2013-05-20 04:09:00,54.5,28.7,29.26,WNW,294,1.0,3.0,37,0.00,,,0.00,Wunderground v.1.15,2013-05-20 11:09:00,
2013-05-20 04:15:00,54.7,28.9,29.65,WNW,294,0.0,2.0,37,0.00,,,0.00,Wunderground v.1.15,2013-05-20 11:15:00,
2013-05-20 04:21:00,54.8,29.0,29.53,WNW,294,0.0,0.0,37,0.00,,,0.00,Wunderground v.1.15,2013-05-20 11:21:00,
2013-05-20 04:26:00,54.7,28.9,29.43,WNW,294,0.0,0.0,37,0.00,,,0.00,Wunderground v.1.15,2013-05-20 11:26:00,
2013-05-20 04:32:00,54.5,28.7,29.61,WNW,294,0.0,0.0,37,0.00,,,0.00,Wunderground v.1.15,2013-05-20 11:32:00,
2013-05-20 04:38:00,54.4,29.3,29.65,WNW,294,0.0,1.0,38,0.00,,,0.00,Wunderground v.1.15,2013-05-20 11:38:00,
2013-05-20 04:43:00,54.4,29.3,29.61,WNW,294,1.0,4.0,38,0.00,,,0.00,Wunderground v.1.15,2013-05-20 11:43:00,
2013-05-20 04:49:00,54.5,29.4,29.40,WNW,294,1.0,4.0,38,0.00,,,0.00,Wunderground v.1.15,2013-05-20 11:49:00,
2013-05-20 04:54:00,54.5,29.4,29.65,WNW,294,1.0,4.0,38,0.00,,,0.00,Wunderground v.1.15,2013-05-20 11:54:00,
2013-05-20 05:00:00,54.5,29.4,29.65,WNW,294,1.0,1.0,38,0.00,,,0.00,Wunderground v.1.15,2013-05-20 12:00:00,
2013-05-20 05:05:00,54.3,29.2,29.65,WNW,294,0.0,2.0,38,0.00,,,0.00,Wunderground v.1.15,2013-05-20 12:05:00,
2013-05-20 05:10:00,54.5,29.4,29.65,WNW,294,1.0,1.0,38,0.00,,,0.00,Wunderground v.1.15,2013-05-20 12:10:00,
2013-05-20 05:16:00,55.1,29.9,29.65,WNW,294,1.0,2.0,38,0.00,,,0.00,Wunderground v.1.15,2013-05-20 12:16:00,
2013-05-20 05:22:00,56.5,30.5,29.65,WNW,295,2.0,5.0,37,0.00,,,0.00,Wunderground v.1.15,2013-05-20 12:22:00,
2013-05-20 05:27:00,57.5,30.7,29.66,WNW,295,3.0,5.0,36,0.00,,,0.00,Wunderground v.1.15,2013-05-20 12:27:00,
2013-05-20 05:33:00,57.5,30.7,29.66,NW,306,3.0,5.0,36,0.00,,,0.00,Wunderground v.1.15,2013-05-20 12:33:00,
2013-05-20 05:38:00,57.5,30.7,29.66,NW,307,2.0,5.0,36,0.00,,,0.00,Wunderground v.1.15,2013-05-20 12:38:00,
2013-05-20 05:44:00,56.9,30.9,29.66,NW,307,1.0,2.0,37,0.00,,,0.00,Wunderground v.1.15,2013-05-20 12:44:00,
2013-05-20 05:50:00,56.0,30.7,29.66,NW,307,0.0,1.0,38,0.00,,,0.00,Wunderground v.1.15,2013-05-20 12:50:00,
2013-05-20 05:55:00,55.7,30.5,29.67,NW,306,1.0,4.0,38,0.00,,,0.00,Wunderground v.1.15,2013-05-20 12:55:00,
2013-05-20 06:00:00,55.9,30.6,29.67,NW,305,2.0,2.0,38,0.00,,,0.00,Wunderground v.1.15,2013-05-20 13:00:00,
2013-05-20 06:06:00,56.2,30.9,29.67,NW,306,2.0,4.0,38,0.00,,,0.00,Wunderground v.1.15,2013-05-20 13:06:00,
2013-05-20 06:11:00,56.5,31.2,29.67,NW,323,3.0,4.0,38,0.00,,,0.00,Wunderground v.1.15,2013-05-20 13:11:00,
2013-05-20 06:17:00,56.9,31.5,29.67,NW,322,4.0,4.0,38,0.00,,,0.00,Wunderground v.1.15,2013-05-20 13:17:00,
2013-05-20 06:22:00,57.0,31.0,29.67,NW,322,2.0,3.0,37,0.00,,,0.00,Wunderground v.1.15,2013-05-20 13:22:00,
2013-05-20 06:28:00,57.3,31.2,29.67,NW,322,2.0,3.0,37,0.00,,,0.00,Wunderground v.1.15,2013-05-20 13:28:00,
2013-05-20 06:33:00,57.5,31.4,29.67,NW,322,2.0,3.0,37,0.00,,,0.00,Wunderground v.1.15,2013-05-20 13:33:00,
2013-05-20 06:39:00,57.9,32.4,29.67,NW,322,1.0,3.0,38,0.00,,,0.00,Wunderground v.1.15,2013-05-20 13:39:00,
2013-05-20 06:45:00,58.9,32.7,29.67,NW,320,1.0,2.0,37,0.00,,,0.00,Wunderground v.1.15,2013-05-20 13:45:00,
2013-05-20 06:51:00,60.2,32.4,29.67,NW,315,3.0,4.0,35,0.00,,,0.00,Wunderground v.1.15,2013-05-20 13:51:00,
2013-05-20 06:57:00,61.3,32.7,29.67,NW,315,4.0,5.0,34,0.00,,,0.00,Wunderground v.1.15,2013-05-20 13:57:00,
2013-05-20 07:03:00,62.0,32.5,29.67,NW,315,4.0,5.0,33,0.00,,,0.00,Wunderground v.1.15,2013-05-20 14:03:00,
2013-05-20 07:08:00,62.3,32.8,29.67,NW,317,4.0,5.0,33,0.00,,,0.00,Wunderground v.1.15,2013-05-20 14:08:00,
2013-05-20 07:13:00,62.5,33.0,29.67,NW,310,4.0,6.0,33,0.00,,,0.00,Wunderground v.1.15,2013-05-20 14:13:00,
2013-05-20 07:19:00,62.8,33.2,29.67,NW,316,3.0,6.0,33,0.00,,,0.00,Wunderground v.1.15,2013-05-20 14:19:00,
2013-05-20 07:24:00,63.0,33.4,29.67,NNW,328,3.0,7.0,33,0.00,,,0.00,Wunderground v.1.15,2013-05-20 14:24:00,
2013-05-20 07:30:00,63.8,33.4,29.67,NNW,333,4.0,4.0,32,0.00,,,0.00,Wunderground v.1.15,2013-05-20 14:30:00,
2013-05-20 07:36:00,64.4,33.1,29.67,NW,318,3.0,4.0,31,0.00,,,0.00,Wunderground v.1.15,2013-05-20 14:36:00,
2013-05-20 07:41:00,65.0,33.6,29.67,NW,316,2.0,4.0,31,0.00,,,0.00,Wunderground v.1.15,2013-05-20 14:41:00,
2013-05-20 07:47:00,65.5,32.4,29.67,NW,307,3.0,5.0,29,0.00,,,0.00,Wunderground v.1.15,2013-05-20 14:47:00,
2013-05-20 07:52:00,66.0,31.9,29.68,NNW,334,4.0,7.0,28,0.00,,,0.00,Wunderground v.1.15,2013-05-20 14:52:00,
2013-05-20 07:58:00,66.4,31.4,29.68,NW,306,5.0,7.0,27,0.00,,,0.00,Wunderground v.1.15,2013-05-20 14:58:00,
2013-05-20 08:03:00,66.6,32.5,29.68,NW,318,5.0,7.0,28,0.00,,,0.00,Wunderground v.1.15,2013-05-20 15:03:00,
2013-05-20 08:09:00,66.9,31.8,29.61,NW,313,5.0,7.0,27,0.00,,,0.00,Wunderground v.1.15,2013-05-20 15:09:00,
2013-05-20 08:15:00,67.1,32.9,29.61,NW,309,4.0,6.0,28,0.00,,,0.00,Wunderground v.1.15,2013-05-20 15:15:00,
2013-05-20 08:21:00,67.3,32.1,29.68,NW,323,3.0,3.0,27,0.00,,,0.00,Wunderground v.1.15,2013-05-20 15:21:00,
2013-05-20 08:26:00,67.6,32.4,29.68,WNW,295,3.0,7.0,27,0.00,,,0.00,Wunderground v.1.15,2013-05-20 15:26:00,
2013-05-20 08:31:00,67.8,32.6,29.68,WNW,296,4.0,6.0,27,0.00,,,0.00,Wunderground v.1.15,2013-05-20 15:31:00,
2013-05-20 08:37:00,67.7,32.5,29.68,NW,314,5.0,8.0,27,0.00,,,0.00,Wunderground v.1.15,2013-05-20 15:37:00,
2013-05-20 08:42:00,67.9,32.7,29.68,NW,313,5.0,5.0,27,0.00,,,0.00,Wunderground v.1.15,2013-05-20 15:42:00,
2013-05-20 08:48:00,68.4,33.1,29.68,WNW,300,3.0,5.0,27,0.00,,,0.00,Wunderground v.1.15,2013-05-20 15:48:00,
2013-05-20 08:53:00,68.6,32.3,29.68,WNW,297,2.0,4.0,26,0.00,,,0.00,Wunderground v.1.15,2013-05-20 15:53:00,
2013-05-20 08:58:00,68.8,32.5,29.68,WNW,296,2.0,4.0,26,0.00,,,0.00,Wunderground v.1.15,2013-05-20 15:58:00,
2013-05-20 09:04:00,69.1,32.7,28.47,WNW,300,1.0,5.0,26,0.00,,,0.00,Wunderground v.1.15,2013-05-20 16:04:00,
2013-05-20 09:09:00,69.7,33.3,28.47,WNW,298,1.0,5.0,26,0.00,,,0.00,Wunderground v.1.15,2013-05-20 16:09:00,
2013-05-20 09:15:00,69.9,32.5,28.47,WNW,298,1.0,1.0,25,0.00,,,0.00,Wunderground v.1.15,2013-05-20 16:15:00,
2013-05-20 09:20:00,69.9,32.5,28.47,WNW,297,1.0,1.0,25,0.00,,,0.00,Wunderground v.1.15,2013-05-20 16:20:00,
2013-05-20 09:25:00,69.9,32.5,29.01,WNW,297,1.0,3.0,25,0.00,,,0.00,Wunderground v.1.15,2013-05-20 16:25:00,
2013-05-20 09:31:00,70.5,33.0,29.18,South,180,1.0,1.0,25,0.00,,,0.00,Wunderground v.1.15,2013-05-20 16:31:00,
2013-05-20 09:36:00,70.8,33.2,29.18,South,180,1.0,2.0,25,0.00,,,0.00,Wunderground v.1.15,2013-05-20 16:36:00,
2013-05-20 09:42:00,71.6,32.9,29.10,NNW,329,1.0,3.0,24,0.00,,,0.00,Wunderground v.1.15,2013-05-20 16:42:00,
2013-05-20 09:48:00,72.2,34.4,29.10,NNW,327,1.0,3.0,25,0.00,,,0.00,Wunderground v.1.15,2013-05-20 16:48:00,
2013-05-20 09:53:00,72.3,33.5,29.10,NW,308,1.0,1.0,24,0.00,,,0.00,Wunderground v.1.15,2013-05-20 16:53:00,
2013-05-20 09:59:00,72.1,34.3,29.10,WNW,302,2.0,5.0,25,0.00,,,0.00,Wunderground v.1.15,2013-05-20 16:59:00,
2013-05-20 10:04:00,71.5,33.8,29.09,WSW,249,2.0,4.0,25,0.00,,,0.00,Wunderground v.1.15,2013-05-20 17:04:00,
2013-05-20 10:09:00,71.3,33.6,29.09,WNW,298,4.0,8.0,25,0.00,,,0.00,Wunderground v.1.15,2013-05-20 17:09:00,
2013-05-20 10:15:00,72.1,34.3,29.20,WNW,299,3.0,5.0,25,0.00,,,0.00,Wunderground v.1.15,2013-05-20 17:15:00,
2013-05-20 10:21:00,72.5,34.7,29.20,SW,223,3.0,8.0,25,0.00,,,0.00,Wunderground v.1.15,2013-05-20 17:21:00,
2013-05-20 10:26:00,72.9,34.0,29.20,WSW,248,4.0,8.0,24,0.00,,,0.00,Wunderground v.1.15,2013-05-20 17:26:00,
2013-05-20 10:32:00,73.1,35.2,29.20,NW,321,3.0,4.0,25,0.00,,,0.00,Wunderground v.1.15,2013-05-20 17:32:00,
2013-05-20 10:37:00,73.2,34.2,29.01,NW,311,3.0,7.0,24,0.00,,,0.00,Wunderground v.1.15,2013-05-20 17:37:00,
2013-05-20 10:43:00,73.2,34.2,29.01,NW,315,4.0,13.0,24,0.00,,,0.00,Wunderground v.1.15,2013-05-20 17:43:00,
2013-05-20 10:48:00,73.3,34.3,29.01,North,360,5.0,13.0,24,0.00,,,0.00,Wunderground v.1.15,2013-05-20 17:48:00,
2013-05-20 10:54:00,73.9,33.7,29.01,NW,317,3.0,5.0,23,0.00,,,0.00,Wunderground v.1.15,2013-05-20 17:54:00,
2013-05-20 11:00:00,74.7,34.4,29.04,WSW,249,3.0,8.0,23,0.00,,,0.00,Wunderground v.1.15,2013-05-20 18:00:00,
2013-05-20 11:06:00,73.5,34.5,28.67,NNW,346,4.0,8.0,24,0.00,,,0.00,Wunderground v.1.15,2013-05-20 18:06:00,
2013-05-20 11:11:00,73.3,34.3,28.67,West,259,4.0,7.0,24,0.00,,,0.00,Wunderground v.1.15,2013-05-20 18:11:00,
2013-05-20 11:16:00,74.0,35.9,29.17,West,281,4.0,7.0,25,0.00,,,0.00,Wunderground v.1.15,2013-05-20 18:16:00,
2013-05-20 11:22:00,75.0,35.7,29.17,NNW,338,5.0,5.0,24,0.00,,,0.00,Wunderground v.1.15,2013-05-20 18:22:00,
2013-05-20 11:28:00,75.9,35.4,29.18,NNW,333,4.0,5.0,23,0.00,,,0.00,Wunderground v.1.15,2013-05-20 18:28:00,
2013-05-20 11:34:00,76.4,34.7,29.26,NW,317,2.0,4.0,22,0.00,,,0.00,Wunderground v.1.15,2013-05-20 18:34:00,
2013-05-20 11:39:00,75.6,36.2,29.26,West,259,3.0,6.0,24,0.00,,,0.00,Wunderground v.1.15,2013-05-20 18:39:00,
2013-05-20 11:45:00,75.7,35.3,29.26,South,186,4.0,5.0,23,0.00,,,0.00,Wunderground v.1.15,2013-05-20 18:45:00,
2013-05-20 11:51:00,74.9,34.6,29.20,SSW,212,4.0,6.0,23,0.00,,,0.00,Wunderground v.1.15,2013-05-20 18:51:00,
2013-05-20 11:56:00,75.4,36.1,29.25,West,267,4.0,6.0,24,0.00,,,0.00,Wunderground v.1.15,2013-05-20 18:56:00,
2013-05-20 12:02:00,75.6,35.2,29.18,North,360,4.0,9.0,23,0.00,,,0.00,Wunderground v.1.15,2013-05-20 19:02:00,
2013-05-20 12:08:00,76.5,35.9,29.38,SE,126,4.0,9.0,23,0.00,,,0.00,Wunderground v.1.15,2013-05-20 19:08:00,
2013-05-20 12:13:00,77.2,35.4,29.38,East,93,3.0,7.0,22,0.00,,,0.00,Wunderground v.1.15,2013-05-20 19:13:00,
2013-05-20 12:19:00,76.3,35.8,29.38,West,271,4.0,7.0,23,0.00,,,0.00,Wunderground v.1.15,2013-05-20 19:19:00,
2013-05-20 12:24:00,76.9,36.3,28.94,NE,45,3.0,5.0,23,0.00,,,0.00,Wunderground v.1.15,2013-05-20 19:24:00,
2013-05-20 12:30:00,77.2,36.5,29.11,West,269,3.0,3.0,23,0.00,,,0.00,Wunderground v.1.15,2013-05-20 19:30:00,
2013-05-20 12:36:00,78.2,35.0,29.11,SE,134,4.0,9.0,21,0.00,,,0.00,Wunderground v.1.15,2013-05-20 19:36:00,
2013-05-20 12:42:00,78.2,36.2,29.00,NW,317,5.0,5.0,22,0.00,,,0.00,Wunderground v.1.15,2013-05-20 19:42:00,
2013-05-20 12:48:00,78.4,35.2,29.00,NW,318,5.0,15.0,21,0.00,,,0.00,Wunderground v.1.15,2013-05-20 19:48:00,
2013-05-20 12:53:00,78.9,35.6,29.28,NW,309,4.0,8.0,21,0.00,,,0.00,Wunderground v.1.15,2013-05-20 19:53:00,
2013-05-20 12:58:00,78.4,35.2,29.28,NW,317,5.0,8.0,21,0.00,,,0.00,Wunderground v.1.15,2013-05-20 19:58:00,
2013-05-20 13:04:00,78.1,35.0,29.28,NNW,348,4.0,6.0,21,0.00,,,0.00,Wunderground v.1.15,2013-05-20 20:04:00,
2013-05-20 13:09:00,78.8,35.5,29.28,WSW,257,3.0,6.0,21,0.00,,,0.00,Wunderground v.1.15,2013-05-20 20:09:00,
2013-05-20 13:15:00,78.7,35.5,29.28,WNW,294,4.0,9.0,21,0.00,,,0.00,Wunderground v.1.15,2013-05-20 20:15:00,
2013-05-20 13:21:00,79.4,36.0,29.28,ENE,77,4.0,5.0,21,0.00,,,0.00,Wunderground v.1.15,2013-05-20 20:21:00,
2013-05-20 13:26:00,79.4,33.5,28.74,NW,313,5.0,11.0,19,0.00,,,0.00,Wunderground v.1.15,2013-05-20 20:26:00,
2013-05-20 13:32:00,79.3,33.4,29.09,NW,310,7.0,9.0,19,0.00,,,0.00,Wunderground v.1.15,2013-05-20 20:32:00,
2013-05-20 13:38:00,79.7,33.8,29.33,North,5,6.0,9.0,19,0.00,,,0.00,Wunderground v.1.15,2013-05-20 20:38:00,
2013-05-20 13:44:00,80.7,34.6,29.44,WSW,246,5.0,8.0,19,0.00,,,0.00,Wunderground v.1.15,2013-05-20 20:44:00,
2013-05-20 13:50:00,80.0,34.0,29.44,NW,306,5.0,9.0,19,0.00,,,0.00,Wunderground v.1.15,2013-05-20 20:50:00,
2013-05-20 13:55:00,79.7,32.4,29.49,WSW,246,5.0,9.0,18,0.00,,,0.00,Wunderground v.1.15,2013-05-20 20:55:00,
2013-05-20 14:01:00,79.7,33.8,29.49,NNW,327,4.0,5.0,19,0.00,,,0.00,Wunderground v.1.15,2013-05-20 21:01:00,
2013-05-20 14:07:00,80.6,33.2,29.54,North,360,4.0,9.0,18,0.00,,,0.00,Wunderground v.1.15,2013-05-20 21:07:00,
2013-05-20 14:12:00,81.4,33.8,29.26,NW,315,5.0,8.0,18,0.00,,,0.00,Wunderground v.1.15,2013-05-20 21:12:00,
2013-05-20 14:18:00,81.4,33.8,29.26,WSW,252,6.0,8.0,18,0.00,,,0.00,Wunderground v.1.15,2013-05-20 21:18:00,
2013-05-20 14:23:00,81.4,33.8,29.26,NW,315,5.0,7.0,18,0.00,,,0.00,Wunderground v.1.15,2013-05-20 21:23:00,
2013-05-20 14:28:00,81.4,32.4,29.26,NW,309,3.0,7.0,17,0.00,,,0.00,Wunderground v.1.15,2013-05-20 21:28:00,
2013-05-20 14:34:00,81.1,30.6,29.38,SE,133,3.0,9.0,16,0.00,,,0.00,Wunderground v.1.15,2013-05-20 21:34:00,
2013-05-20 14:39:00,81.3,30.8,29.34,WNW,286,6.0,13.0,16,0.00,,,0.00,Wunderground v.1.15,2013-05-20 21:39:00,
2013-05-20 14:45:00,80.5,30.2,28.90,NW,319,8.0,14.0,16,0.00,,,0.00,Wunderground v.1.15,2013-05-20 21:45:00,
2013-05-20 14:51:00,80.8,30.4,28.90,NW,317,8.0,8.0,16,0.00,,,0.00,Wunderground v.1.15,2013-05-20 21:51:00,
2013-05-20 14:56:00,81.5,31.0,28.90,NNW,332,8.0,17.0,16,0.00,,,0.00,Wunderground v.1.15,2013-05-20 21:56:00,
2013-05-20 15:02:00,81.9,31.3,28.90,NW,320,7.0,7.0,16,0.00,,,0.00,Wunderground v.1.15,2013-05-20 22:02:00,
2013-05-20 15:08:00,82.2,31.5,28.90,WNW,302,7.0,11.0,16,0.00,,,0.00,Wunderground v.1.15,2013-05-20 22:08:00,
2013-05-20 15:13:00,81.9,29.7,28.90,NW,309,8.0,13.0,15,0.00,,,0.00,Wunderground v.1.15,2013-05-20 22:13:00,
2013-05-20 15:19:00,81.7,31.1,28.90,SW,232,7.0,13.0,16,0.00,,,0.00,Wunderground v.1.15,2013-05-20 22:19:00,
2013-05-20 15:24:00,81.2,30.7,28.90,NW,320,6.0,7.0,16,0.00,,,0.00,Wunderground v.1.15,2013-05-20 22:24:00,
2013-05-20 15:30:00,81.6,31.0,28.90,WNW,287,7.0,7.0,16,0.00,,,0.00,Wunderground v.1.15,2013-05-20 22:30:00,
2013-05-20 15:36:00,80.8,30.4,28.90,WNW,297,9.0,10.0,16,0.00,,,0.00,Wunderground v.1.15,2013-05-20 22:36:00,
2013-05-20 15:41:00,81.2,30.7,28.90,WNW,294,8.0,8.0,16,0.00,,,0.00,Wunderground v.1.15,2013-05-20 22:41:00,
2013-05-20 15:47:00,80.9,30.5,29.24,NNW,331,8.0,11.0,16,0.00,,,0.00,Wunderground v.1.15,2013-05-20 22:47:00,
2013-05-20 15:53:00,81.3,30.8,29.24,WNW,298,8.0,13.0,16,0.00,,,0.00,Wunderground v.1.15,2013-05-20 22:53:00,
2013-05-20 15:58:00,81.8,31.2,29.24,NW,304,6.0,13.0,16,0.00,,,0.00,Wunderground v.1.15,2013-05-20 22:58:00,
2013-05-20 16:04:00,81.9,29.7,29.24,NNW,338,7.0,11.0,15,0.00,,,0.00,Wunderground v.1.15,2013-05-20 23:04:00,
2013-05-20 16:09:00,81.5,31.0,29.24,NW,304,7.0,11.0,16,0.00,,,0.00,Wunderground v.1.15,2013-05-20 23:09:00,
2013-05-20 16:15:00,81.7,31.1,29.24,WNW,288,6.0,9.0,16,0.00,,,0.00,Wunderground v.1.15,2013-05-20 23:15:00,
2013-05-20 16:21:00,81.0,30.6,29.24,NW,309,8.0,9.0,16,0.00,,,0.00,Wunderground v.1.15,2013-05-20 23:21:00,
2013-05-20 16:27:00,81.0,30.6,29.24,WNW,294,7.0,15.0,16,0.00,,,0.00,Wunderground v.1.15,2013-05-20 23:27:00,
2013-05-20 16:33:00,80.7,30.3,29.24,NNW,333,8.0,13.0,16,0.00,,,0.00,Wunderground v.1.15,2013-05-20 23:33:00,
2013-05-20 16:38:00,80.5,31.7,29.24,NW,304,9.0,14.0,17,0.00,,,0.00,Wunderground v.1.15,2013-05-20 23:38:00,
2013-05-20 16:44:00,80.6,31.7,29.24,WNW,298,7.0,9.0,17,0.00,,,0.00,Wunderground v.1.15,2013-05-20 23:44:00,
2013-05-20 16:50:00,81.0,32.1,29.24,NW,313,6.0,6.0,17,0.00,,,0.00,Wunderground v.1.15,2013-05-20 23:50:00,
2013-05-20 16:55:00,80.6,31.7,28.82,NW,315,8.0,11.0,17,0.00,,,0.00,Wunderground v.1.15,2013-05-20 23:55:00,
2013-05-20 17:01:00,80.1,31.3,28.82,WNW,296,9.0,9.0,17,0.00,,,0.00,Wunderground v.1.15,2013-05-21 00:01:00,
2013-05-20 17:07:00,80.1,31.3,28.81,NW,308,9.0,11.0,17,0.00,,,0.00,Wunderground v.1.15,2013-05-21 00:07:00,
2013-05-20 17:12:00,80.2,31.4,28.81,NNW,330,8.0,11.0,17,0.00,,,0.00,Wunderground v.1.15,2013-05-21 00:12:00,
2013-05-20 17:18:00,79.9,32.6,27.93,NW,321,9.0,12.0,18,0.00,,,0.00,Wunderground v.1.15,2013-05-21 00:18:00,
2013-05-20 17:24:00,79.5,32.3,27.93,NNW,329,8.0,15.0,18,0.00,,,0.00,Wunderground v.1.15,2013-05-21 00:24:00,
2013-05-20 17:30:00,79.2,32.0,27.93,NNW,338,8.0,16.0,18,0.00,,,0.00,Wunderground v.1.15,2013-05-21 00:30:00,
2013-05-20 17:36:00,78.9,31.8,27.93,NW,304,8.0,16.0,18,0.00,,,0.00,Wunderground v.1.15,2013-05-21 00:36:00,
2013-05-20 17:42:00,78.3,31.3,27.93,NNW,342,9.0,13.0,18,0.00,,,0.00,Wunderground v.1.15,2013-05-21 00:42:00,
2013-05-20 17:48:00,78.0,31.0,27.93,WNW,299,9.0,13.0,18,0.00,,,0.00,Wunderground v.1.15,2013-05-21 00:48:00,
2013-05-20 17:53:00,77.9,31.0,27.93,NW,314,8.0,10.0,18,0.00,,,0.00,Wunderground v.1.15,2013-05-21 00:53:00,
2013-05-20 17:59:00,77.4,30.5,27.93,NW,312,8.0,15.0,18,0.00,,,0.00,Wunderground v.1.15,2013-05-21 00:59:00,
2013-05-20 18:05:00,77.0,30.2,27.93,WNW,302,10.0,14.0,18,0.00,,,0.00,Wunderground v.1.15,2013-05-21 01:05:00,
2013-05-20 18:10:00,76.5,29.8,28.45,North,351,9.0,9.0,18,0.00,,,0.00,Wunderground v.1.15,2013-05-21 01:10:00,
2013-05-20 18:16:00,76.4,29.7,28.45,NW,310,8.0,14.0,18,0.00,,,0.00,Wunderground v.1.15,2013-05-21 01:16:00,
2013-05-20 18:22:00,76.2,29.6,28.66,NNW,336,8.0,10.0,18,0.00,,,0.00,Wunderground v.1.15,2013-05-21 01:22:00,
2013-05-20 18:27:00,75.8,29.2,28.66,WNW,302,8.0,16.0,18,0.00,,,0.00,Wunderground v.1.15,2013-05-21 01:27:00,
2013-05-20 18:33:00,75.4,28.9,28.40,WNW,287,8.0,13.0,18,0.00,,,0.00,Wunderground v.1.15,2013-05-21 01:33:00,
2013-05-20 18:38:00,74.9,28.5,28.40,NW,304,8.0,13.0,18,0.00,,,0.00,Wunderground v.1.15,2013-05-21 01:38:00,
2013-05-20 18:44:00,74.4,28.1,28.40,NW,308,8.0,12.0,18,0.00,,,0.00,Wunderground v.1.15,2013-05-21 01:44:00,
2013-05-20 18:49:00,73.8,28.9,28.40,NW,318,8.0,12.0,19,0.00,,,0.00,Wunderground v.1.15,2013-05-21 01:49:00,
2013-05-20 18:54:00,73.4,28.6,28.25,NW,319,8.0,9.0,19,0.00,,,0.00,Wunderground v.1.15,2013-05-21 01:54:00,
2013-05-20 19:00:00,73.1,28.4,28.25,NW,304,7.0,7.0,19,0.00,,,0.00,Wunderground v.1.15,2013-05-21 02:00:00,
2013-05-20 19:06:00,72.9,28.2,28.25,NW,305,6.0,12.0,19,0.00,,,0.00,Wunderground v.1.15,2013-05-21 02:06:00,
2013-05-20 19:11:00,72.6,29.2,28.25,West,268,6.0,9.0,20,0.00,,,0.00,Wunderground v.1.15,2013-05-21 02:11:00,
2013-05-20 19:16:00,72.4,29.0,28.25,NW,314,7.0,10.0,20,0.00,,,0.00,Wunderground v.1.15,2013-05-21 02:16:00,
2013-05-20 19:22:00,72.1,28.8,28.25,NW,315,6.0,11.0,20,0.00,,,0.00,Wunderground v.1.15,2013-05-21 02:22:00,
2013-05-20 19:28:00,71.8,28.5,28.73,NW,313,6.0,11.0,20,0.00,,,0.00,Wunderground v.1.15,2013-05-21 02:28:00,
2013-05-20 19:34:00,71.5,28.3,28.73,NW,311,8.0,13.0,20,0.00,,,0.00,Wunderground v.1.15,2013-05-21 02:34:00,
2013-05-20 19:39:00,71.3,29.3,28.73,WNW,299,9.0,13.0,21,0.00,,,0.00,Wunderground v.1.15,2013-05-21 02:39:00,
2013-05-20 19:45:00,71.0,29.1,28.41,NW,311,7.0,10.0,21,0.00,,,0.00,Wunderground v.1.15,2013-05-21 02:45:00,
2013-05-20 19:50:00,70.8,28.9,28.87,NNW,327,7.0,7.0,21,0.00,,,0.00,Wunderground v.1.15,2013-05-21 02:50:00,
2013-05-20 19:56:00,70.5,29.8,28.59,NNW,336,6.0,10.0,22,0.00,,,0.00,Wunderground v.1.15,2013-05-21 02:56:00,
2013-05-20 20:02:00,70.2,29.5,28.59,NW,321,5.0,5.0,22,0.00,,,0.00,Wunderground v.1.15,2013-05-21 03:02:00,
2013-05-20 20:08:00,69.9,29.3,29.14,NW,311,5.0,9.0,22,0.00,,,0.00,Wunderground v.1.15,2013-05-21 03:08:00,
2013-05-20 20:13:00,69.6,29.0,29.14,NW,304,5.0,7.0,22,0.00,,,0.00,Wunderground v.1.15,2013-05-21 03:13:00,
2013-05-20 20:19:00,69.1,27.5,29.14,NW,306,5.0,8.0,21,0.00,,,0.00,Wunderground v.1.15,2013-05-21 03:19:00,
2013-05-20 20:24:00,68.7,27.2,29.14,NW,322,5.0,7.0,21,0.00,,,0.00,Wunderground v.1.15,2013-05-21 03:24:00,
2013-05-20 20:30:00,68.4,28.0,29.14,NW,318,5.0,5.0,22,0.00,,,0.00,Wunderground v.1.15,2013-05-21 03:30:00,
2013-05-20 20:36:00,68.0,26.6,29.14,NW,307,6.0,10.0,21,0.00,,,0.00,Wunderground v.1.15,2013-05-21 03:36:00,
2013-05-20 20:42:00,67.9,26.5,28.71,NW,316,7.0,8.0,21,0.00,,,0.00,Wunderground v.1.15,2013-05-21 03:42:00,
2013-05-20 20:48:00,67.7,26.3,29.14,NW,311,7.0,8.0,21,0.00,,,0.00,Wunderground v.1.15,2013-05-21 03:48:00,
2013-05-20 20:53:00,67.5,26.2,28.94,NW,318,7.0,9.0,21,0.00,,,0.00,Wunderground v.1.15,2013-05-21 03:53:00,
2013-05-20 20:59:00,67.5,26.2,28.94,North,355,8.0,9.0,21,0.00,,,0.00,Wunderground v.1.15,2013-05-21 03:59:00,
2013-05-20 21:01:00,67.5,26.2,28.94,NW,325,8.0,15.0,21,0.00,,,0.00,Wunderground v.1.15,2013-05-21 04:01:00,
2013-05-20 21:03:00,67.4,26.1,28.94,NW,311,8.0,15.0,21,0.00,,,0.00,Wunderground v.1.15,2013-05-21 04:03:00,
2013-05-20 21:05:00,67.4,26.1,28.94,WNW,299,8.0,15.0,21,0.00,,,0.00,Wunderground v.1.15,2013-05-21 04:05:00,
2013-05-20 21:06:00,67.4,26.1,28.94,NNW,346,8.0,15.0,21,0.00,,,0.00,Wunderground v.1.15,2013-05-21 04:06:00,
2013-05-20 21:10:00,67.3,26.0,28.94,NNW,338,7.0,10.0,21,0.00,,,0.00,Wunderground v.1.15,2013-05-21 04:10:00,
2013-05-20 21:15:00,67.1,25.8,28.94,NW,311,7.0,10.0,21,0.00,,,0.00,Wunderground v.1.15,2013-05-21 04:15:00,
2013-05-20 21:21:00,67.0,24.6,28.70,WNW,298,8.0,8.0,20,0.00,,,0.00,Wunderground v.1.15,2013-05-21 04:21:00,
2013-05-20 21:26:00,66.9,25.7,28.70,WNW,302,7.0,8.0,21,0.00,,,0.00,Wunderground v.1.15,2013-05-21 04:26:00,
2013-05-20 21:32:00,66.6,24.2,28.93,NW,312,6.0,10.0,20,0.00,,,0.00,Wunderground v.1.15,2013-05-21 04:32:00,
2013-05-20 21:37:00,66.6,24.2,28.98,NW,307,7.0,10.0,20,0.00,,,0.00,Wunderground v.1.15,2013-05-21 04:37:00,
2013-05-20 21:43:00,66.5,24.2,28.98,NW,317,6.0,12.0,20,0.00,,,0.00,Wunderground v.1.15,2013-05-21 04:43:00,
2013-05-20 21:49:00,66.3,24.0,29.00,NW,323,6.0,12.0,20,0.00,,,0.00,Wunderground v.1.15,2013-05-21 04:49:00,
2013-05-20 21:54:00,66.2,23.9,29.00,NW,317,7.0,7.0,20,0.00,,,0.00,Wunderground v.1.15,2013-05-21 04:54:00,
2013-05-20 22:00:00,66.1,23.8,29.00,NNW,327,7.0,8.0,20,0.00,,,0.00,Wunderground v.1.15,2013-05-21 05:00:00,
2013-05-20 22:05:00,66.0,23.7,29.00,NNW,327,7.0,8.0,20,0.00,,,0.00,Wunderground v.1.15,2013-05-21 05:05:00,
2013-05-20 22:10:00,65.8,23.6,29.00,WNW,303,7.0,7.0,20,0.00,,,0.00,Wunderground v.1.15,2013-05-21 05:10:00,
2013-05-20 22:16:00,65.7,23.5,29.00,West,277,7.0,9.0,20,0.00,,,0.00,Wunderground v.1.15,2013-05-21 05:16:00,
2013-05-20 22:22:00,65.8,23.6,28.89,NW,314,7.0,9.0,20,0.00,,,0.00,Wunderground v.1.15,2013-05-21 05:22:00,
2013-05-20 22:27:00,65.8,23.6,28.89,NW,317,7.0,9.0,20,0.00,,,0.00,Wunderground v.1.15,2013-05-21 05:27:00,
2013-05-20 22:32:00,65.5,23.3,28.89,NW,306,6.0,6.0,20,0.00,,,0.00,Wunderground v.1.15,2013-05-21 05:32:00,
2013-05-20 22:38:00,65.2,24.2,28.89,WNW,296,5.0,7.0,21,0.00,,,0.00,Wunderground v.1.15,2013-05-21 05:38:00,
2013-05-20 22:43:00,64.9,24.0,28.89,NW,313,5.0,7.0,21,0.00,,,0.00,Wunderground v.1.15,2013-05-21 05:43:00,
2013-05-20 22:49:00,64.8,23.9,28.89,WNW,301,5.0,9.0,21,0.00,,,0.00,Wunderground v.1.15,2013-05-21 05:49:00,
2013-05-20 22:54:00,64.6,23.7,28.68,NW,315,6.0,11.0,21,0.00,,,0.00,Wunderground v.1.15,2013-05-21 05:54:00,
2013-05-20 23:00:00,64.5,23.7,28.68,WNW,300,6.0,6.0,21,0.00,,,0.00,Wunderground v.1.15,2013-05-21 06:00:00,
2013-05-20 23:05:00,64.3,23.5,28.68,NW,325,5.0,6.0,21,0.00,,,0.00,Wunderground v.1.15,2013-05-21 06:05:00,
2013-05-20 23:11:00,64.1,23.3,29.42,NW,306,4.0,5.0,21,0.00,,,0.00,Wunderground v.1.15,2013-05-21 06:11:00,
2013-05-20 23:16:00,63.9,23.2,29.42,WNW,300,4.0,5.0,21,0.00,,,0.00,Wunderground v.1.15,2013-05-21 06:16:00,
2013-05-20 23:22:00,63.8,23.1,29.42,WNW,299,4.0,5.0,21,0.00,,,0.00,Wunderground v.1.15,2013-05-21 06:22:00,
2013-05-20 23:27:00,63.7,23.0,29.42,NW,309,4.0,5.0,21,0.00,,,0.00,Wunderground v.1.15,2013-05-21 06:27:00,
2013-05-20 23:33:00,63.5,23.9,29.42,NW,309,3.0,3.0,22,0.00,,,0.00,Wunderground v.1.15,2013-05-21 06:33:00,
2013-05-20 23:38:00,63.3,23.8,29.42,NW,309,2.0,3.0,22,0.00,,,0.00,Wunderground v.1.15,2013-05-21 06:38:00,
2013-05-20 23:44:00,62.8,23.3,29.42,NW,309,1.0,2.0,22,0.00,,,0.00,Wunderground v.1.15,2013-05-21 06:44:00,
2013-05-20 23:49:00,62.2,22.8,29.42,NW,309,0.0,2.0,22,0.00,,,0.00,Wunderground v.1.15,2013-05-21 06:49:00,
2013-05-20 23:54:00,61.5,23.3,29.42,NW,309,0.0,2.0,23,0.00,,,0.00,Wunderground v.1.15,2013-05-21 06:54:00,